Hourly Weather Ruda-Krekhivs'ka

Today, 20 April, Tuesday

Time Temperature Precipitation Wind Pressure Humidity
00:00 +6°C° 0 mm 2 mps 739 mmHg 88%
01:00 +6°C° 0 mm 2 mps 738 mmHg 89%
02:00 +6°C° 0 mm 2 mps 738 mmHg 90%
03:00 +5°C° 0 mm 2 mps 738 mmHg 91%
04:00 +5°C° 0 mm 2 mps 738 mmHg 92%
05:00 +5°C° 0 mm 2 mps 738 mmHg 92%
06:00 +6°C° 0 mm 2 mps 738 mmHg 88%
07:00 +7°C° 0 mm 2 mps 738 mmHg 83%
08:00 +8°C° 0 mm 2 mps 738 mmHg 79%
09:00 +9°C° 0.1 mm 3 mps 738 mmHg 71%
10:00 +10°C° 0.1 mm 3 mps 738 mmHg 64%
11:00 +12°C° 0.1 mm 3 mps 738 mmHg 56%
12:00 +12°C° 0.1 mm 3 mps 738 mmHg 53%
13:00 +14°C° 0.1 mm 2 mps 737 mmHg 51%
14:00 +14°C° 0.1 mm 2 mps 737 mmHg 48%
15:00 +14°C° 0.2 mm 2 mps 737 mmHg 50%
16:00 +13°C° 0.2 mm 3 mps 737 mmHg 53%
17:00 +12°C° 0.2 mm 3 mps 736 mmHg 56%
18:00 +12°C° 0.2 mm 2 mps 737 mmHg 63%
19:00 +10°C° 0.2 mm 2 mps 737 mmHg 70%
20:00 +8°C° 0.2 mm 2 mps 737 mmHg 78%
21:00 +9°C° 0.1 mm 1 mps 737 mmHg 80%
22:00 +8°C° 0.1 mm 1 mps 737 mmHg 81%
23:00 +8°C° 0.1 mm 1 mps 737 mmHg 83%

Tomorrow, 21 April, Wednesday

Time Temperature Precipitation Wind Pressure Humidity
00:00 +7°C° 0 mm 1 mps 737 mmHg 85%
01:00 +7°C° 0 mm 1 mps 737 mmHg 86%
02:00 +5°C° 0 mm 2 mps 737 mmHg 88%
03:00 +5°C° 0 mm 2 mps 737 mmHg 90%
04:00 +5°C° 0 mm 2 mps 737 mmHg 91%
05:00 +4°C° 0 mm 3 mps 737 mmHg 92%
06:00 +5°C° 0 mm 3 mps 737 mmHg 87%
07:00 +7°C° 0 mm 3 mps 737 mmHg 81%
08:00 +8°C° 0 mm 4 mps 738 mmHg 75%
09:00 +10°C° 0.1 mm 4 mps 737 mmHg 69%
10:00 +12°C° 0.1 mm 5 mps 737 mmHg 62%
11:00 +13°C° 0.1 mm 5 mps 737 mmHg 56%
12:00 +13°C° 0.3 mm 5 mps 737 mmHg 56%
13:00 +14°C° 0.3 mm 5 mps 737 mmHg 55%
14:00 +14°C° 0.3 mm 6 mps 737 mmHg 55%
15:00 +14°C° 0.3 mm 5 mps 737 mmHg 60%
16:00 +13°C° 0.3 mm 5 mps 737 mmHg 64%
17:00 +13°C° 0.3 mm 4 mps 737 mmHg 69%
18:00 +11°C° 0.4 mm 4 mps 737 mmHg 75%
19:00 +10°C° 0.4 mm 4 mps 737 mmHg 81%
20:00 +8°C° 0.4 mm 4 mps 737 mmHg 87%
21:00 +7°C° 0 mm 4 mps 737 mmHg 88%
22:00 +7°C° 0 mm 4 mps 738 mmHg 89%
23:00 +6°C° 0 mm 4 mps 738 mmHg 90%

Day after tomorrow, 22 April, Thursday

Time Temperature Precipitation Wind Pressure Humidity
00:00 +6°C° 0 mm 4 mps 738 mmHg 91%
01:00 +7°C° 0 mm 3 mps 738 mmHg 92%
02:00 +7°C° 0 mm 3 mps 737 mmHg 93%
03:00 +5°C° 0 mm 3 mps 738 mmHg 93%
04:00 +5°C° 0 mm 3 mps 738 mmHg 93%
05:00 +5°C° 0 mm 3 mps 738 mmHg 93%
06:00 +7°C° 0 mm 3 mps 738 mmHg 90%
07:00 +8°C° 0 mm 3 mps 738 mmHg 87%
08:00 +9°C° 0 mm 3 mps 738 mmHg 84%
09:00 +11°C° 0.3 mm 3 mps 738 mmHg 77%
10:00 +12°C° 0.3 mm 4 mps 738 mmHg 70%
11:00 +13°C° 0.3 mm 4 mps 738 mmHg 63%
12:00 +13°C° 0.7 mm 5 mps 738 mmHg 67%
13:00 +11°C° 0.7 mm 6 mps 738 mmHg 72%
14:00 +11°C° 0.7 mm 7 mps 738 mmHg 76%
15:00 +9°C° 0.9 mm 6 mps 738 mmHg 81%
16:00 +7°C° 0.9 mm 5 mps 739 mmHg 86%
17:00 +6°C° 0.9 mm 4 mps 739 mmHg 90%
18:00 +7°C° 0.5 mm 3 mps 739 mmHg 90%
19:00 +5°C° 0.5 mm 3 mps 740 mmHg 90%
20:00 +6°C° 0.5 mm 2 mps 740 mmHg 90%
21:00 +6°C° 0.1 mm 2 mps 740 mmHg 90%
22:00 +6°C° 0.1 mm 2 mps 740 mmHg 91%
23:00 +4°C° 0.1 mm 3 mps 740 mmHg 91%

23 April, Friday

Time Temperature Precipitation Wind Pressure Humidity
00:00 +4°C° 0.1 mm 3 mps 740 mmHg 90%
01:00 +4°C° 0.1 mm 3 mps 740 mmHg 89%
02:00 +3°C° 0.1 mm 3 mps 740 mmHg 88%
03:00 +3°C° 0 mm 3 mps 740 mmHg 88%
04:00 +3°C° 0 mm 3 mps 740 mmHg 89%
05:00 +2°C° 0 mm 3 mps 740 mmHg 90%
06:00 +3°C° 0 mm 4 mps 741 mmHg 86%
07:00 +3°C° 0 mm 4 mps 741 mmHg 82%
08:00 +3°C° 0 mm 5 mps 741 mmHg 78%
09:00 +5°C° 0 mm 5 mps 741 mmHg 70%
10:00 +5°C° 0 mm 6 mps 742 mmHg 61%
11:00 +7°C° 0 mm 6 mps 742 mmHg 53%
12:00 +7°C° 0.1 mm 6 mps 742 mmHg 52%
13:00 +6°C° 0.1 mm 7 mps 742 mmHg 52%
14:00 +8°C° 0.1 mm 7 mps 742 mmHg 51%
15:00 +6°C° 0.1 mm 7 mps 742 mmHg 54%
16:00 +6°C° 0.1 mm 7 mps 742 mmHg 57%
17:00 +6°C° 0.1 mm 7 mps 742 mmHg 60%
18:00 +5°C° 0 mm 6 mps 743 mmHg 64%
19:00 +5°C° 0 mm 5 mps 743 mmHg 68%
20:00 +3°C° 0 mm 4 mps 743 mmHg 72%
21:00 +3°C° 0 mm 4 mps 744 mmHg 74%
22:00 +1°C° 0 mm 4 mps 744 mmHg 76%
23:00 +1°C° 0 mm 4 mps 744 mmHg 78%

24 April, Saturday

Time Temperature Precipitation Wind Pressure Humidity
00:00 0°C° 0 mm 4 mps 744 mmHg 81%
01:00 0°C° 0 mm 3 mps 744 mmHg 83%
02:00 -1°C° 0 mm 3 mps 745 mmHg 86%
03:00 -1°C° 0 mm 3 mps 745 mmHg 86%
04:00 -1°C° 0 mm 3 mps 745 mmHg 85%
05:00 -1°C° 0 mm 3 mps 745 mmHg 85%
06:00 0°C° 0 mm 3 mps 745 mmHg 76%
07:00 +2°C° 0 mm 3 mps 745 mmHg 67%
08:00 +4°C° 0 mm 3 mps 745 mmHg 58%
09:00 +5°C° 0 mm 4 mps 744 mmHg 60%
10:00 +6°C° 0 mm 5 mps 744 mmHg 61%
11:00 +7°C° 0 mm 6 mps 744 mmHg 63%
12:00 +7°C° 0.2 mm 6 mps 744 mmHg 66%
13:00 +7°C° 0.2 mm 6 mps 743 mmHg 70%
14:00 +7°C° 0.2 mm 6 mps 743 mmHg 73%
15:00 +7°C° 0.2 mm 6 mps 743 mmHg 70%
16:00 +8°C° 0.2 mm 6 mps 742 mmHg 68%
17:00 +9°C° 0.2 mm 6 mps 742 mmHg 65%
18:00 +7°C° 0.1 mm 5 mps 742 mmHg 71%
19:00 +5°C° 0.1 mm 4 mps 742 mmHg 78%
20:00 +5°C° 0.1 mm 2 mps 742 mmHg 84%
21:00 +3°C° 0 mm 3 mps 743 mmHg 87%
22:00 +3°C° 0 mm 3 mps 743 mmHg 89%
23:00 +2°C° 0 mm 3 mps 743 mmHg 91%

25 April, Sunday

Time Temperature Precipitation Wind Pressure Humidity
00:00 +2°C° 0 mm 3 mps 743 mmHg 92%
01:00 +2°C° 0 mm 3 mps 743 mmHg 92%
02:00 +1°C° 0 mm 3 mps 743 mmHg 93%
03:00 +1°C° 0 mm 3 mps 743 mmHg 93%
04:00 +1°C° 0 mm 3 mps 743 mmHg 93%
05:00 +2°C° 0 mm 3 mps 744 mmHg 93%
06:00 +1°C° 0 mm 4 mps 744 mmHg 88%
07:00 +1°C° 0 mm 4 mps 745 mmHg 83%
08:00 +1°C° 0 mm 4 mps 745 mmHg 77%
09:00 +4°C° 0 mm 4 mps 745 mmHg 65%
10:00 +5°C° 0 mm 4 mps 745 mmHg 53%
11:00 +6°C° 0 mm 4 mps 746 mmHg 40%
12:00 +7°C° 0 mm 5 mps 745 mmHg 39%
13:00 +7°C° 0 mm 5 mps 745 mmHg 37%
14:00 +8°C° 0 mm 5 mps 745 mmHg 35%
15:00 +8°C° 0 mm 5 mps 745 mmHg 39%
16:00 +8°C° 0 mm 5 mps 745 mmHg 44%
17:00 +7°C° 0 mm 5 mps 745 mmHg 48%
18:00 +6°C° 0 mm 4 mps 745 mmHg 52%
19:00 +4°C° 0 mm 4 mps 745 mmHg 57%
20:00 +3°C° 0 mm 3 mps 745 mmHg 61%
21:00 +3°C° 0 mm 2 mps 746 mmHg 63%
22:00 +3°C° 0 mm 2 mps 746 mmHg 66%
23:00 +2°C° 0 mm 2 mps 746 mmHg 68%
Show more